Jacksonville Craig, FL

11:02 AM EDT on July 20, 2017 (GMT -0400)
Craig Municipal

Weather History for KCRG - August, 2013

Change the Weather History Date:

Saturday, August 3, 2013

  Actual Average Record
Temperature  
Mean Temperature 82 °F -  
Max Temperature 93 °F 87 °F 98 °F (2006)
Min Temperature 75 °F 71 °F 68 °F (2011)
Cooling Degree Days 18    
Growing Degree Days 32 (Base 50)    
Moisture  
Dew Point 74 °F    
Average Humidity 74    
Maximum Humidity 88    
Minimum Humidity 55    
Precipitation  
Precipitation 0.02 in - - ()
Sea Level Pressure  
Sea Level Pressure 30.02 in    
Wind  
Wind Speed 3 mph (SW)    
Max Wind Speed 10 mph    
Max Gust Speed -    
Visibility 10 miles    
Events Thunderstorm    
Averages and records for this station are not official NWS values.
T = Trace of Precipitation, MM = Missing Value Source: NWS Daily Summary

Daily Weather History Graph

Daily Weather History Graph

Search for Another Location

Airport or City:

Trip Planner

Search our weather history database for the weather conditions in past years. The results will help you decide how hot, cold, wet, or windy it might be!

Date:

Astronomy

Aug. 03, 2013 Rise Set
Actual Time 6:45 AM EDT 8:18 PM EDT
Civil Twilight 6:19 AM EDT 8:44 PM EDT
Nautical Twilight 5:48 AM EDT 9:14 PM EDT
Astronomical Twilight 5:16 AM EDT 9:47 PM EDT
Moon 3:56 AM EDT (8/3) 5:57 PM EDT (8/3)
Length of Visible Light 14h 24m
Length of Day
13h 32m
Waning Crescent, 9% of the Moon is Illuminated
Aug 3
Waning Crescent
Aug 6
New
Aug 14
First Quarter
Aug 20
Full
Aug 28
Last Quarter

Hourly Weather History & Observations

Time (EDT) Temp. Heat Index Dew Point Humidity Pressure Visibility Wind Dir Wind Speed Gust Speed Precip Events Conditions
12:53 AM 78.1 °F - 73.9 °F 87% 30.03 in 10.0 mi Calm Calm - N/A   Clear
1:53 AM 77.0 °F - 73.0 °F 88% 30.02 in 10.0 mi Calm Calm - N/A   Clear
2:53 AM 78.1 °F - 73.9 °F 87% 30.02 in 10.0 mi Calm Calm - N/A   Mostly Cloudy
3:53 AM 78.1 °F - 73.0 °F 84% 30.00 in 10.0 mi Calm Calm - N/A   Clear
4:53 AM 77.0 °F - 73.0 °F 88% 30.00 in 10.0 mi Calm Calm - N/A   Clear
5:53 AM 75.9 °F - 72.0 °F 87% 30.01 in 10.0 mi Calm Calm - N/A   Clear
6:53 AM 75.9 °F - 72.0 °F 87% 30.02 in 10.0 mi Calm Calm - N/A   Clear
7:53 AM 79.0 °F - 73.9 °F 84% 30.04 in 10.0 mi Calm Calm - 0.00 in   Clear
8:53 AM 82.9 °F 89.4 °F 73.9 °F 74% 30.04 in 10.0 mi West 4.6 mph - N/A   Clear
9:53 AM 86.0 °F 93.8 °F 73.9 °F 67% 30.04 in 10.0 mi SW 4.6 mph - N/A   Clear
10:53 AM 89.1 °F 98.0 °F 73.9 °F 61% 30.04 in 10.0 mi NNW 8.1 mph - N/A   Partly Cloudy
11:53 AM 90.0 °F 96.9 °F 72.0 °F 55% 30.05 in 10.0 mi NW 5.8 mph - N/A   Mostly Cloudy
12:53 PM 90.0 °F 96.9 °F 72.0 °F 55% 30.04 in 10.0 mi WSW 6.9 mph - N/A   Mostly Cloudy
1:53 PM 90.0 °F 97.9 °F 73.0 °F 57% 30.03 in 10.0 mi West 10.4 mph - N/A   Mostly Cloudy
2:53 PM 84.0 °F 91.9 °F 75.0 °F 74% 30.04 in 10.0 mi ENE 6.9 mph - N/A   Overcast
3:53 PM 84.0 °F 90.2 °F 73.0 °F 69% 30.03 in 10.0 mi NE 5.8 mph - N/A   Mostly Cloudy
4:53 PM 86.0 °F 93.8 °F 73.9 °F 67% 30.00 in 10.0 mi South 8.1 mph - N/A   Partly Cloudy
5:53 PM 89.1 °F 98.0 °F 73.9 °F 61% 30.00 in 10.0 mi South 6.9 mph - N/A   Clear
6:39 PM 87.8 °F 95.6 °F 73.4 °F 62% 29.99 in 10.0 mi SSW 9.2 mph - N/A   Partly Cloudy
6:53 PM 87.1 °F 95.4 °F 73.9 °F 65% 29.99 in 10.0 mi SW 6.9 mph - N/A   Partly Cloudy
7:53 PM 86.0 °F 93.8 °F 73.9 °F 67% 30.00 in 10.0 mi SW 4.6 mph - N/A   Partly Cloudy
8:41 PM 84.2 °F 92.3 °F 75.2 °F 74% 30.03 in 10.0 mi South 4.6 mph - 0.00 in Thunderstorm Thunderstorm
8:53 PM 84.9 °F 93.3 °F 75.0 °F 72% 30.03 in 10.0 mi SSW 5.8 mph - 0.00 in Thunderstorm Thunderstorm
9:53 PM 84.0 °F 92.6 °F 75.9 °F 76% 30.05 in 10.0 mi WSW 4.6 mph - N/A   Mostly Cloudy
10:53 PM 82.0 °F 90.2 °F 77.0 °F 85% 30.06 in 10.0 mi SW 5.8 mph - 0.02 in   Overcast
11:53 PM 82.0 °F 89.4 °F 75.9 °F 82% 30.05 in 10.0 mi WSW 5.8 mph - N/A   Scattered Clouds